{"data":{"norad_id":62831,"epoch":"2026-09-21T03:09:29.305152Z","epoch_age_seconds":113628,"freshness":"FRESH","line1":"1 62831U 25019C   26264.13158918  .00077025  00000+0  59750-3 0  9992","line2":"2 62831  42.9978 208.3741 0000868 210.3059 149.7759 15.70869016 94613","mean_motion":15.70869016,"eccentricity":8.68e-5,"inclination_deg":42.9978,"raan_deg":208.3741,"arg_perigee_deg":210.3059,"mean_anomaly_deg":149.7759,"bstar":0.0005975,"rev_number":9461,"period_min":91.669005202404,"perigee_km":355.82757082224,"apogee_km":356.99668855116,"semimajor_km":6734.5491296867,"source":"CELESTRAK","updated_at":"2026-09-22T09:00:49.671283Z"}}